Home   Weather   Riverview   Past weeks

Flag for Canada Past Weather in Riverview, New Brunswick, Canada — Yesterday and Last 2 Weeks

Now
52 °F

Partly sunny.


Feels Like: 46 °F
Forecast: 38 / 54 °F
Wind: 21 mph from Northwest

Location: Moncton

Current Time: Sep 25, 2016 at 12:57:31 PM

Latest Report: Sep 25, 2016 at 12:00 PM


Visibility: 15 mi

Pressure: 29.86 "Hg

Humidity: 58%

Dew Point: 37 °F

Location of RiverviewLocation

Past Weather in Riverview — Graph

°F

Riverview Temperature Yesterday

Maximum temperature yesterday: 55 °F (at 3:00 PM)
Minimum temperature yesterday: 37 °F (at 6:00 AM)
Average temperature yesterday: 47 °F

High & Low Weather Summary for the Past Weeks

 TemperatureHumidityPressure
High77 °F (Sep 13, 3:00 PM)100% (Sep 14, 5:00 AM)30.32 "Hg (Sep 14, 5:00 AM)
Low36 °F (Sep 25, 7:00 AM)36% (Sep 21, 3:00 PM)29.68 "Hg (Sep 11, 5:00 PM)
Average59 °F80%30.03 "Hg
* Reported Sep 10 11:00 AM — Sep 25 11:00 AM, Riverview, Weather by CustomWeather, © 2016

Note: Actual official high and low records may vary slightly from our data, if they occured in-between our weather recording intervals... More about our weather records

Advertising

Riverview Weather History for the Previous 24 Hours

Scroll right to see more
 ConditionsComfort  
Time TempWeatherWind HumidityBarometerVisibility
11:00 AM
Sun, Sep 25
50 °FPartly sunny.18 mph62%29.86 "Hg15 mi
10:00 AM46 °FPassing clouds.12 mph71%29.86 "Hg15 mi
9:00 AM43 °FPassing clouds.16 mph76%29.86 "Hg15 mi
8:00 AM41 °FPassing clouds.12 mph81%29.85 "Hg15 mi
7:00 AM36 °FPassing clouds.7 mph93%29.85 "Hg15 mi
6:00 AM37 °FPassing clouds.9 mph93%29.85 "Hg15 mi
5:00 AM39 °FClear.9 mph87%29.85 "Hg15 mi
4:00 AM41 °FClear.9 mph81%29.84 "Hg15 mi
3:00 AM43 °FPassing clouds.12 mph76%29.85 "Hg15 mi
2:00 AM45 °FPassing clouds.10 mph71%29.85 "Hg15 mi
1:00 AM45 °FPassing clouds.10 mph71%29.87 "Hg15 mi
12:00 AM46 °FPassing clouds.10 mph66%29.88 "Hg15 mi
11:00 PM
Sat, Sep 24
46 °FOvercast.9 mph66%29.90 "Hg15 mi
10:00 PM48 °FPassing clouds.7 mph66%29.92 "Hg15 mi
9:00 PM48 °FPassing clouds.10 mph66%29.92 "Hg15 mi
8:00 PM50 °FPassing clouds.10 mph62%29.91 "Hg15 mi
7:00 PM52 °FPartly sunny.9 mph58%29.90 "Hg15 mi
6:00 PM54 °FPartly sunny.12 mph54%29.89 "Hg15 mi
5:00 PM55 °FPartly sunny.8 mph47%29.89 "Hg15 mi
4:00 PM55 °FBroken clouds.14 mph47%29.89 "Hg15 mi
3:00 PM55 °FPartly sunny.14 mph51%29.90 "Hg15 mi
2:00 PM54 °FBroken clouds.14 mph58%29.89 "Hg15 mi
1:00 PM52 °FPartly sunny.10 mph72%29.91 "Hg15 mi
12:00 PM52 °FPartly sunny.7 mph67%29.94 "Hg15 mi
Weather by CustomWeather, © 2016

See weather overviewHow to use our weather pages